Flag for U.S.A. Weather past 2 weeks in Livonia, Michigan, U.S.A.

Now
71 °F

Partly cloudy.


Feels Like: 68 °F
Forecast: 68 / 81 °F
Wind: 8 mph from Southwest

Location: Detroit Metropolitan Wayne County Airport

Current Time: Sep 2, 2014 at 3:27:06 AM

Latest Report: Sep 2, 2014 at 2:53 AM


Visibility: 8 mi

Pressure: 29.84 "Hg

Humidity: 90%

Dew point: 68 °F

Location of LivoniaLocation

Historic Weather in Livonia — Graph

°F

Livonia temperature yesterday

Maximum temperature yesterday: 84 °F (at 2:53 PM)
Minimum temperature yesterday: 69 °F (at 5:53 AM)
Average temperature yesterday: 75 °F

Past Weeks' High & Low Weather Summary

 TemperatureHumidityPressure
High89 °F (Aug 26, 2:53 PM)100% (Aug 20, 1:58 AM)30.16 "Hg (Aug 20, 1:58 AM)
Low59 °F (Aug 29, 4:53 AM)40% (Aug 28, 4:53 PM)29.73 "Hg (Sep 1, 5:53 PM)
Average73 °F76%29.98 "Hg
* Reported Aug 18 1:53 AM — Sep 2 1:53 AM, Livonia, Weather by CustomWeather, © 2014

Note: Actual official high and low records may vary slightly from our data, if they occured in-between our weather recording intervals... More about our weather records

Advertising

Livonia weather history for previous 24 hours

 ConditionsComfort  
Time TempWeatherWind HumidityBarometerVisibility
1:53 AM
Sep 2
71 °FPartly cloudy.6 mph93%29.84 "Hg8 mi
12:53 AM72 °FPartly cloudy.7 mph91%29.84 "Hg9 mi
11:53 PM
Sep 1
73 °FPartly cloudy.7 mph90%29.84 "Hg10 mi
10:53 PM75 °FPartly cloudy.9 mph85%29.83 "Hg10 mi
9:53 PM74 °FPassing clouds.6 mph88%29.82 "Hg10 mi
8:53 PM73 °FScattered clouds.6 mph94%29.80 "Hg10 mi
7:53 PM76 °FPartly sunny.9 mph88%29.78 "Hg8 mi
6:53 PM79 °FBroken clouds.12 mph74%29.76 "Hg10 mi
5:53 PM83 °FBroken clouds.18 mph61%29.73 "Hg10 mi
4:53 PM84 °FCloudy.15 mph61%29.75 "Hg10 mi
3:53 PM84 °FCloudy.16 mph61%29.78 "Hg10 mi
2:53 PM84 °FMostly cloudy.14 mph65%29.79 "Hg10 mi
1:53 PM82 °FPartly sunny.13 mph72%29.82 "Hg9 mi
12:53 PM78 °FBroken clouds.10 mph82%29.86 "Hg7 mi
11:53 AM75 °FLight rain. Fog.13 mph90%29.88 "Hg6 mi
10:53 AM75 °FLight rain. Fog.9 mph88%29.88 "Hg6 mi
9:53 AM74 °FFog.8 mph88%29.90 "Hg3 mi
9:04 AM72 °FFog.7 mph94%29.92 "Hg3 mi
8:53 AM72 °FFog.7 mph93%29.91 "Hg3 mi
7:53 AM70 °FFog.6 mph97%29.92 "Hg3 mi
6:53 AM69 °FFog.3 mph96%29.91 "Hg5 mi
5:53 AM69 °FFog.6 mph96%29.92 "Hg5 mi
4:53 AM70 °FFog.6 mph93%29.92 "Hg6 mi
3:53 AM70 °FFog.6 mph93%29.92 "Hg5 mi
Weather by CustomWeather, © 2014

See weather overviewHow to use our weather pages